QPF
0.00 0.00 0.01 0.03 0.01 0.01 0.02 0.03 0.03 0.02 0.02 0.02 0.01 0.03 0.03 0.04 0.04 0.05 0.06 0.08 0.09 0.08 0.09 0.10 0.09 0.09 0.08 0.07 0.06 0.04 0.03 0.04 0.04 0.04 0.04 0.04 0.04 0.04 0.04 0.06 0.04 0.03 0.06
0.00 0.00 0.01 0.04 0.02 0.02 0.02 0.04 0.03 0.02 0.02 0.02 0.02 0.02 0.02 0.03 0.04 0.06 0.12 0.11 0.12 0.10 0.09 0.10 0.09 0.08 0.08 0.07 0.05 0.04 0.03 0.02 0.03 0.04 0.04 0.05 0.05 0.04 0.04 0.04 0.03 0.04 0.05
0.00 0.00 0.01 0.03 0.03 0.03 0.04 0.04 0.04 0.03 0.02 0.02 0.02 0.02 0.02 0.02 0.03 0.05 0.10 0.13 0.13 0.11 0.09 0.10 0.09 0.07 0.07 0.06 0.06 0.06 0.04 0.04 0.04 0.04 0.04 0.05 0.05 0.05 0.04 0.04 0.03 0.05 0.05
0.00 0.00 0.01 0.03 0.03 0.03 0.04 0.05 0.05 0.04 0.03 0.03 0.02 0.02 0.02 0.03 0.03 0.03 0.04 0.10 0.11 0.11 0.10 0.10 0.08 0.06 0.06 0.07 0.07 0.08 0.07 0.05 0.04 0.03 0.04 0.05 0.05 0.06 0.05 0.05 0.05 0.04 0.04
0.01 0.01 0.01 0.03 0.03 0.02 0.03 0.04 0.04 0.04 0.03 0.03 0.02 0.02 0.02 0.02 0.03 0.03 0.03 0.05 0.07 0.10 0.11 0.10 0.08 0.06 0.07 0.07 0.07 0.07 0.07 0.05 0.04 0.04 0.04 0.03 0.04 0.06 0.05 0.05 0.03 0.04 0.03
0.01 0.01 0.01 0.04 0.04 0.03 0.03 0.04 0.04 0.03 0.03 0.03 0.02 0.02 0.02 0.02 0.03 0.03 0.03 0.03 0.04 0.06 0.08 0.08 0.06 0.05 0.05 0.05 0.06 0.05 0.05 0.05 0.04 0.03 0.02 0.02 0.03 0.05 0.05 0.04 0.03 0.03 0.03
0.01 0.01 0.02 0.04 0.05 0.04 0.03 0.03 0.03 0.03 0.03 0.02 0.02 0.02 0.03 0.03 0.03 0.02 0.02 0.02 0.03 0.04 0.04 0.05 0.03 0.03 0.03 0.03 0.03 0.03 0.04 0.04 0.03 0.02 0.02 0.02 0.04 0.06 0.06 0.05 0.04 0.03 0.04
0.01 0.01 0.03 0.05 0.07 0.06 0.04 0.03 0.04 0.04 0.03 0.03 0.03 0.03 0.03 0.02 0.02 0.02 0.02 0.02 0.02 0.04 0.04 0.03 0.03 0.02 0.02 0.02 0.02 0.02 0.03 0.04 0.02 0.02 0.02 0.03 0.05 0.06 0.06 0.05 0.04 0.04 0.04
0.01 0.02 0.03 0.06 0.07 0.07 0.05 0.03 0.03 0.04 0.04 0.04 0.03 0.03 0.03 0.02 0.02 0.02 0.02 0.03 0.03 0.02 0.03 0.02 0.02 0.02 0.02 0.02 0.01 0.01 0.02 0.03 0.03 0.02 0.02 0.04 0.05 0.06 0.06 0.04 0.03 0.03 0.04
0.02 0.02 0.03 0.07 0.09 0.10 0.07 0.04 0.02 0.03 0.04 0.05 0.06 0.05 0.03 0.02 0.02 0.03 0.03 0.03 0.02 0.02 0.02 0.02 0.02 0.01 0.01 0.01 0.00 0.00 0.01 0.02 0.02 0.02 0.03 0.04 0.05 0.05 0.05 0.04 0.05 0.04 0.04
0.02 0.03 0.06 0.08 0.12 0.14 0.11 0.07 0.04 0.03 0.04 0.04 0.05 0.04 0.03 0.03 0.02 0.03 0.03 0.02 0.03 0.03 0.02 0.02 0.01 0.00 0.01 0.01 0.00 0.00 0.01 0.01 0.02 0.02 0.03 0.05 0.05 0.05 0.05 0.05 0.05 0.05 0.04
0.02 0.03 0.06 0.08 0.13 0.17 0.17 0.10 0.05 0.04 0.05 0.04 0.04 0.04 0.03 0.03 0.02 0.02 0.02 0.02 0.03 0.04 0.04 0.02 0.01 0.01 0.01 0.01 0.00 0.00 0.01 0.01 0.01 0.02 0.02 0.04 0.05 0.05 0.05 0.05 0.04 0.04 0.04
0.01 0.02 0.05 0.09 0.15 0.20 0.21 0.12 0.05 0.05 0.04 0.04 0.03 0.03 0.02 0.03 0.02 0.02 0.01 0.02 0.03 0.04 0.03 0.02 0.02 0.02 0.01 0.00 0.01 0.00 0.00 0.01 0.01 0.02 0.01 0.02 0.03 0.04 0.04 0.04 0.04 0.04 0.04
0.02 0.04 0.06 0.13 0.22 0.24 0.22 0.13 0.07 0.04 0.03 0.03 0.03 0.03 0.02 0.02 0.02 0.02 0.01 0.01 0.03 0.03 0.03 0.02 0.02 0.01 0.01 0.00 0.00 0.01 0.01 0.01 0.01 0.01 0.01 0.02 0.03 0.04 0.04 0.04 0.04 0.04 0.03
0.02 0.04 0.08 0.14 0.20 0.24 0.21 0.13 0.08 0.06 0.03 0.02 0.03 0.03 0.02 0.01 0.02 0.02 0.02 0.01 0.01 0.02 0.02 0.02 0.01 0.01 0.00 0.00 0.00 0.01 0.01 0.01 0.01 0.01 0.01 0.01 0.02 0.04 0.05 0.05 0.04 0.04 0.04
0.02 0.03 0.08 0.13 0.16 0.21 0.20 0.13 0.07 0.06 0.05 0.03 0.02 0.02 0.02 0.02 0.01 0.02 0.02 0.01 0.01 0.01 0.01 0.01 0.00 0.00 0.00 0.00 0.00 0.00 0.01 0.01 0.01 0.01 0.01 0.01 0.01 0.02 0.04 0.05 0.05 0.05 0.05
0.02 0.04 0.07 0.11 0.13 0.17 0.17 0.13 0.08 0.06 0.06 0.04 0.02 0.02 0.02 0.02 0.01 0.01 0.02 0.02 0.01 0.01 0.01 0.00 0.00 0.00 0.00 0.00 0.00 0.00 0.01 0.01 0.01 0.01 0.01 0.01 0.01 0.02 0.03 0.04 0.04 0.04 0.04
0.02 0.03 0.05 0.09 0.11 0.13 0.13 0.11 0.08 0.06 0.06 0.06 0.04 0.03 0.02 0.02 0.02 0.01 0.02 0.02 0.01 0.01 0.01 0.01 0.00 0.00 0.00 0.00 0.00 0.00 0.00 0.01 0.01 0.01 0.01 0.01 0.01 0.02 0.03 0.03 0.03 0.03 0.02
0.02 0.04 0.04 0.08 0.10 0.10 0.10 0.08 0.08 0.07 0.06 0.07 0.06 0.04 0.03 0.03 0.02 0.02 0.02 0.02 0.02 0.01 0.01 0.01 0.01 0.01 0.00 0.00 0.00 0.00 0.00 0.00 0.02 0.02 0.01 0.01 0.01 0.02 0.03 0.03 0.03 0.02 0.02
0.02 0.04 0.05 0.07 0.08 0.08 0.11 0.11 0.10 0.08 0.07 0.07 0.07 0.05 0.04 0.04 0.03 0.02 0.03 0.03 0.02 0.01 0.02 0.01 0.01 0.01 0.01 0.01 0.00 0.00 0.01 0.01 0.01 0.03 0.03 0.02 0.02 0.02 0.03 0.03 0.03 0.02 0.02
0.02 0.04 0.05 0.06 0.06 0.06 0.11 0.15 0.12 0.08 0.06 0.07 0.07 0.05 0.05 0.04 0.04 0.03 0.03 0.03 0.03 0.02 0.02 0.02 0.01 0.01 0.00 0.00 0.00 0.01 0.01 0.01 0.01 0.02 0.04 0.04 0.04 0.03 0.04 0.05 0.03 0.02 0.02
0.02 0.03 0.05 0.05 0.05 0.06 0.08 0.12 0.14 0.08 0.05 0.05 0.06 0.06 0.06 0.05 0.04 0.04 0.04 0.03 0.03 0.03 0.02 0.02 0.01 0.01 0.00 0.00 0.00 0.01 0.01 0.02 0.02 0.02 0.03 0.04 0.05 0.05 0.05 0.06 0.04 0.04 0.03
0.02 0.02 0.03 0.05 0.05 0.07 0.09 0.13 0.15 0.11 0.09 0.08 0.07 0.06 0.07 0.07 0.06 0.05 0.05 0.04 0.03 0.03 0.04 0.03 0.02 0.01 0.01 0.01 0.00 0.01 0.01 0.01 0.02 0.02 0.03 0.04 0.04 0.05 0.05 0.06 0.05 0.04 0.04
0.02 0.02 0.03 0.04 0.06 0.07 0.08 0.11 0.13 0.11 0.10 0.08 0.06 0.06 0.06 0.06 0.07 0.08 0.07 0.06 0.04 0.03 0.04 0.04 0.04 0.02 0.02 0.01 0.01 0.01 0.01 0.01 0.01 0.02 0.02 0.03 0.04 0.04 0.05 0.06 0.05 0.04 0.04
0.02 0.03 0.03 0.04 0.05 0.07 0.08 0.09 0.11 0.11 0.09 0.08 0.07 0.06 0.06 0.05 0.05 0.06 0.07 0.08 0.07 0.05 0.04 0.04 0.04 0.03 0.02 0.02 0.02 0.01 0.01 0.01 0.01 0.01 0.02 0.03 0.03 0.04 0.04 0.04 0.04 0.04 0.04
0.01 0.02 0.03 0.04 0.05 0.06 0.07 0.08 0.09 0.10 0.10 0.08 0.07 0.08 0.08 0.06 0.04 0.04 0.04 0.05 0.06 0.07 0.06 0.04 0.03 0.03 0.03 0.03 0.02 0.02 0.02 0.01 0.01 0.01 0.01 0.02 0.03 0.04 0.04 0.04 0.04 0.06 0.06
MSLP
1012.72 1012.89 1013.10 1013.36 1013.69 1014.06 1014.44 1014.79 1015.09 1015.32 1015.48 1015.59 1015.67 1015.75 1015.84 1015.96 1016.11 1016.27 1016.43 1016.59 1016.73 1016.87 1017.01 1017.15 1017.29 1017.44 1017.59 1017.74 1017.88 1018.02 1018.15 1018.29 1018.43 1018.59 1018.75 1018.91 1019.06 1019.18 1019.28 1019.35 1019.42 1019.48 1019.57
1012.54 1012.76 1013.02 1013.36 1013.75 1014.18 1014.59 1014.96 1015.26 1015.49 1015.66 1015.77 1015.88 1015.99 1016.12 1016.27 1016.44 1016.62 1016.79 1016.95 1017.10 1017.25 1017.41 1017.58 1017.76 1017.95 1018.13 1018.29 1018.43 1018.55 1018.66 1018.77 1018.90 1019.04 1019.22 1019.39 1019.57 1019.73 1019.86 1019.95 1020.02 1020.09 1020.16
1012.30 1012.58 1012.91 1013.32 1013.79 1014.26 1014.72 1015.11 1015.42 1015.65 1015.81 1015.94 1016.06 1016.20 1016.36 1016.55 1016.74 1016.93 1017.11 1017.27 1017.42 1017.59 1017.76 1017.96 1018.18 1018.39 1018.60 1018.77 1018.91 1019.01 1019.10 1019.19 1019.30 1019.44 1019.62 1019.83 1020.04 1020.24 1020.40 1020.53 1020.62 1020.70 1020.78
1012.08 1012.40 1012.81 1013.30 1013.83 1014.37 1014.86 1015.27 1015.58 1015.81 1015.97 1016.10 1016.23 1016.38 1016.57 1016.77 1016.98 1017.19 1017.37 1017.54 1017.70 1017.87 1018.07 1018.29 1018.53 1018.77 1018.99 1019.18 1019.31 1019.41 1019.48 1019.55 1019.65 1019.80 1020.00 1020.23 1020.48 1020.72 1020.93 1021.09 1021.22 1021.31 1021.41
1011.93 1012.30 1012.78 1013.34 1013.95 1014.54 1015.06 1015.47 1015.78 1015.98 1016.12 1016.24 1016.37 1016.53 1016.73 1016.95 1017.18 1017.39 1017.59 1017.77 1017.94 1018.13 1018.34 1018.58 1018.84 1019.10 1019.34 1019.54 1019.67 1019.76 1019.83 1019.90 1020.00 1020.16 1020.38 1020.64 1020.92 1021.20 1021.45 1021.65 1021.80 1021.93 1022.04
1011.90 1012.32 1012.86 1013.49 1014.15 1014.78 1015.32 1015.73 1016.02 1016.19 1016.30 1016.39 1016.50 1016.65 1016.86 1017.09 1017.34 1017.58 1017.79 1017.99 1018.18 1018.38 1018.61 1018.87 1019.15 1019.42 1019.67 1019.88 1020.02 1020.13 1020.20 1020.28 1020.40 1020.57 1020.80 1021.09 1021.40 1021.70 1021.97 1022.20 1022.38 1022.53 1022.67
1012.01 1012.47 1013.06 1013.74 1014.44 1015.09 1015.64 1016.04 1016.29 1016.43 1016.50 1016.55 1016.64 1016.78 1016.99 1017.23 1017.50 1017.76 1018.00 1018.23 1018.44 1018.67 1018.92 1019.19 1019.48 1019.76 1020.02 1020.24 1020.40 1020.52 1020.62 1020.72 1020.86 1021.05 1021.30 1021.60 1021.92 1022.23 1022.52 1022.76 1022.96 1023.12 1023.28
1012.25 1012.73 1013.35 1014.06 1014.78 1015.44 1015.97 1016.35 1016.58 1016.68 1016.71 1016.74 1016.81 1016.94 1017.15 1017.41 1017.70 1017.99 1018.26 1018.52 1018.77 1019.02 1019.28 1019.56 1019.86 1020.15 1020.42 1020.64 1020.82 1020.97 1021.09 1021.23 1021.40 1021.61 1021.88 1022.18 1022.50 1022.81 1023.09 1023.33 1023.53 1023.71 1023.89
1012.56 1013.06 1013.68 1014.40 1015.11 1015.76 1016.28 1016.63 1016.83 1016.91 1016.93 1016.94 1017.01 1017.14 1017.36 1017.64 1017.96 1018.28 1018.59 1018.88 1019.16 1019.43 1019.71 1020.00 1020.30 1020.59 1020.86 1021.10 1021.30 1021.47 1021.63 1021.80 1022.00 1022.24 1022.51 1022.82 1023.13 1023.42 1023.69 1023.91 1024.11 1024.30 1024.49
1012.88 1013.38 1013.99 1014.68 1015.37 1015.99 1016.49 1016.83 1017.02 1017.11 1017.13 1017.16 1017.24 1017.40 1017.64 1017.94 1018.29 1018.64 1018.98 1019.31 1019.61 1019.91 1020.20 1020.49 1020.79 1021.08 1021.35 1021.59 1021.81 1022.01 1022.20 1022.41 1022.63 1022.89 1023.17 1023.47 1023.76 1024.04 1024.28 1024.50 1024.69 1024.88 1025.09
1013.15 1013.63 1014.22 1014.87 1015.52 1016.10 1016.57 1016.91 1017.12 1017.23 1017.30 1017.37 1017.50 1017.69 1017.96 1018.30 1018.67 1019.05 1019.42 1019.78 1020.10 1020.42 1020.72 1021.02 1021.31 1021.60 1021.87 1022.12 1022.35 1022.57 1022.79 1023.02 1023.27 1023.54 1023.82 1024.10 1024.38 1024.63 1024.86 1025.07 1025.26 1025.46 1025.68
1013.33 1013.80 1014.35 1014.94 1015.54 1016.08 1016.53 1016.87 1017.12 1017.29 1017.42 1017.57 1017.75 1018.00 1018.32 1018.68 1019.08 1019.49 1019.88 1020.26 1020.61 1020.94 1021.26 1021.56 1021.86 1022.14 1022.42 1022.67 1022.91 1023.15 1023.38 1023.63 1023.89 1024.16 1024.43 1024.70 1024.96 1025.20 1025.41 1025.61 1025.81 1026.03 1026.27
1013.42 1013.87 1014.38 1014.91 1015.45 1015.95 1016.39 1016.75 1017.05 1017.29 1017.51 1017.74 1018.01 1018.32 1018.68 1019.07 1019.49 1019.91 1020.33 1020.72 1021.10 1021.45 1021.79 1022.11 1022.41 1022.70 1022.98 1023.24 1023.49 1023.74 1023.98 1024.23 1024.49 1024.75 1025.01 1025.26 1025.50 1025.72 1025.93 1026.13 1026.34 1026.57 1026.84
1013.42 1013.86 1014.34 1014.82 1015.30 1015.77 1016.20 1016.60 1016.95 1017.28 1017.59 1017.91 1018.25 1018.62 1019.02 1019.44 1019.88 1020.31 1020.74 1021.16 1021.55 1021.93 1022.30 1022.64 1022.97 1023.28 1023.57 1023.84 1024.10 1024.35 1024.59 1024.84 1025.08 1025.33 1025.57 1025.80 1026.01 1026.22 1026.41 1026.62 1026.84 1027.09 1027.38
1013.36 1013.82 1014.27 1014.72 1015.16 1015.60 1016.04 1016.46 1016.88 1017.28 1017.68 1018.09 1018.50 1018.91 1019.34 1019.78 1020.22 1020.67 1021.11 1021.54 1021.97 1022.38 1022.78 1023.16 1023.53 1023.86 1024.18 1024.47 1024.74 1024.99 1025.24 1025.47 1025.70 1025.93 1026.14 1026.34 1026.53 1026.71 1026.89 1027.09 1027.32 1027.58 1027.88
1013.28 1013.76 1014.21 1014.64 1015.07 1015.51 1015.96 1016.42 1016.88 1017.35 1017.82 1018.29 1018.74 1019.19 1019.64 1020.08 1020.53 1020.98 1021.43 1021.88 1022.34 1022.79 1023.24 1023.67 1024.07 1024.45 1024.80 1025.11 1025.40 1025.67 1025.91 1026.14 1026.36 1026.56 1026.75 1026.91 1027.07 1027.22 1027.39 1027.57 1027.79 1028.05 1028.36
1013.19 1013.70 1014.17 1014.61 1015.05 1015.50 1015.98 1016.47 1016.99 1017.51 1018.02 1018.52 1019.01 1019.47 1019.92 1020.36 1020.80 1021.25 1021.71 1022.19 1022.68 1023.17 1023.66 1024.14 1024.60 1025.02 1025.41 1025.76 1026.07 1026.36 1026.62 1026.85 1027.06 1027.24 1027.41 1027.55 1027.67 1027.79 1027.92 1028.08 1028.28 1028.52 1028.80
1013.07 1013.63 1014.14 1014.62 1015.09 1015.58 1016.09 1016.63 1017.18 1017.74 1018.28 1018.80 1019.29 1019.75 1020.19 1020.62 1021.05 1021.50 1021.97 1022.47 1022.99 1023.52 1024.06 1024.58 1025.08 1025.54 1025.97 1026.36 1026.71 1027.03 1027.31 1027.56 1027.78 1027.96 1028.11 1028.23 1028.33 1028.42 1028.51 1028.63 1028.78 1028.99 1029.24
1012.90 1013.52 1014.08 1014.62 1015.15 1015.69 1016.25 1016.83 1017.42 1018.00 1018.56 1019.08 1019.57 1020.02 1020.44 1020.86 1021.29 1021.74 1022.23 1022.74 1023.28 1023.84 1024.40 1024.95 1025.49 1025.98 1026.45 1026.88 1027.27 1027.63 1027.94 1028.23 1028.47 1028.67 1028.82 1028.94 1029.02 1029.08 1029.14 1029.22 1029.32 1029.48 1029.68
1012.67 1013.34 1013.96 1014.57 1015.17 1015.78 1016.41 1017.04 1017.66 1018.26 1018.83 1019.35 1019.82 1020.26 1020.68 1021.10 1021.52 1021.98 1022.47 1023.00 1023.55 1024.12 1024.69 1025.26 1025.80 1026.32 1026.82 1027.28 1027.71 1028.11 1028.48 1028.80 1029.08 1029.31 1029.49 1029.62 1029.70 1029.75 1029.78 1029.82 1029.88 1029.98 1030.13
1012.38 1013.09 1013.77 1014.45 1015.13 1015.81 1016.50 1017.18 1017.84 1018.46 1019.03 1019.55 1020.03 1020.46 1020.88 1021.30 1021.74 1022.20 1022.70 1023.23 1023.78 1024.35 1024.91 1025.47 1026.01 1026.54 1027.04 1027.53 1028.00 1028.45 1028.86 1029.24 1029.58 1029.85 1030.07 1030.22 1030.32 1030.37 1030.40 1030.41 1030.44 1030.49 1030.59
1012.03 1012.77 1013.51 1014.25 1015.00 1015.75 1016.49 1017.22 1017.91 1018.56 1019.14 1019.67 1020.15 1020.59 1021.02 1021.46 1021.91 1022.39 1022.90 1023.43 1023.97 1024.52 1025.06 1025.59 1026.11 1026.63 1027.13 1027.64 1028.13 1028.62 1029.08 1029.51 1029.90 1030.23 1030.49 1030.69 1030.82 1030.90 1030.93 1030.94 1030.95 1030.98 1031.03
1011.68 1012.44 1013.21 1013.99 1014.78 1015.58 1016.37 1017.13 1017.85 1018.52 1019.12 1019.66 1020.16 1020.63 1021.09 1021.55 1022.03 1022.53 1023.05 1023.57 1024.10 1024.62 1025.13 1025.62 1026.11 1026.60 1027.10 1027.60 1028.12 1028.63 1029.13 1029.61 1030.05 1030.43 1030.74 1030.98 1031.16 1031.27 1031.33 1031.36 1031.38 1031.39 1031.42
1011.40 1012.16 1012.93 1013.72 1014.53 1015.35 1016.15 1016.93 1017.67 1018.35 1018.97 1019.53 1020.06 1020.56 1021.05 1021.55 1022.06 1022.59 1023.12 1023.64 1024.15 1024.64 1025.11 1025.57 1026.02 1026.49 1026.97 1027.47 1027.99 1028.52 1029.05 1029.56 1030.03 1030.45 1030.80 1031.09 1031.31 1031.46 1031.57 1031.63 1031.67 1031.70 1031.72
1011.25 1011.98 1012.73 1013.50 1014.29 1015.08 1015.88 1016.65 1017.38 1018.07 1018.70 1019.29 1019.84 1020.38 1020.91 1021.45 1022.00 1022.55 1023.09 1023.62 1024.11 1024.58 1025.02 1025.45 1025.87 1026.31 1026.77 1027.26 1027.78 1028.32 1028.86 1029.38 1029.88 1030.32 1030.70 1031.02 1031.27 1031.47 1031.62 1031.73 1031.81 1031.86 1031.90
1011.29 1011.98 1012.67 1013.38 1014.10 1014.84 1015.59 1016.33 1017.04 1017.71 1018.35 1018.95 1019.53 1020.10 1020.67 1021.25 1021.83 1022.41 1022.96 1023.49 1023.98 1024.44 1024.86 1025.27 1025.67 1026.09 1026.54 1027.03 1027.54 1028.07 1028.61 1029.14 1029.63 1030.07 1030.46 1030.80 1031.08 1031.32 1031.51 1031.67 1031.79 1031.88 1031.95
Thickness
5693 5692 5691 5691 5691 5690 5690 5690 5690 5690 5691 5691 5691 5692 5692 5693 5694 5694 5696 5696 5696 5697 5697 5698 5698 5698 5698 5698 5698 5698 5699 5699 5699 5699 5699 5700 5701 5701 5702 5702 5703 5703 5703
5691 5689 5687 5687 5687 5687 5686 5686 5686 5686 5686 5687 5687 5687 5688 5688 5689 5690 5691 5692 5692 5692 5692 5693 5693 5693 5693 5693 5694 5694 5694 5694 5694 5695 5695 5695 5696 5696 5697 5697 5697 5697 5698
5688 5685 5683 5683 5683 5682 5682 5682 5682 5681 5682 5682 5683 5683 5683 5683 5684 5685 5685 5686 5686 5686 5687 5687 5687 5688 5688 5688 5688 5689 5689 5689 5690 5690 5690 5690 5690 5691 5692 5692 5692 5693 5693
5683 5681 5679 5679 5678 5678 5677 5677 5677 5677 5677 5677 5678 5678 5679 5679 5679 5680 5680 5680 5681 5681 5681 5681 5682 5682 5682 5682 5683 5683 5684 5684 5685 5685 5684 5685 5685 5685 5686 5687 5687 5688 5688
5677 5676 5674 5673 5673 5673 5672 5672 5672 5672 5672 5672 5672 5673 5673 5674 5674 5674 5675 5675 5675 5675 5675 5676 5676 5676 5676 5676 5677 5678 5678 5679 5679 5679 5679 5679 5679 5680 5680 5681 5682 5682 5682
5670 5669 5668 5668 5668 5668 5667 5667 5667 5667 5667 5667 5667 5668 5668 5668 5668 5669 5669 5669 5669 5669 5669 5669 5669 5669 5670 5670 5671 5672 5673 5673 5673 5673 5673 5672 5673 5673 5674 5675 5676 5676 5677
5662 5662 5661 5662 5662 5662 5662 5662 5661 5661 5661 5661 5662 5662 5662 5662 5663 5663 5663 5663 5663 5663 5662 5663 5662 5663 5663 5664 5664 5665 5666 5667 5667 5666 5666 5666 5667 5667 5668 5669 5669 5670 5670
5655 5654 5654 5655 5655 5656 5656 5656 5656 5656 5656 5656 5655 5656 5656 5656 5656 5656 5657 5657 5657 5657 5656 5656 5656 5656 5657 5657 5658 5659 5660 5660 5660 5660 5659 5659 5660 5661 5662 5663 5663 5663 5664
5648 5647 5646 5647 5648 5649 5649 5650 5650 5650 5650 5649 5649 5649 5649 5649 5649 5650 5650 5650 5650 5650 5650 5649 5649 5649 5649 5650 5651 5652 5653 5653 5653 5652 5652 5653 5654 5654 5655 5656 5656 5657 5657
5639 5639 5639 5640 5641 5641 5642 5643 5643 5644 5644 5643 5643 5643 5642 5642 5643 5643 5643 5643 5643 5644 5643 5643 5643 5642 5642 5643 5644 5645 5646 5646 5645 5645 5645 5645 5646 5647 5648 5648 5649 5650 5650
5630 5631 5632 5633 5634 5634 5635 5636 5637 5637 5637 5636 5636 5636 5636 5636 5636 5636 5636 5636 5636 5636 5636 5636 5635 5635 5635 5636 5637 5638 5638 5638 5638 5637 5637 5638 5639 5639 5640 5640 5641 5642 5642
5621 5623 5624 5626 5627 5628 5628 5629 5630 5631 5630 5630 5630 5630 5630 5629 5629 5629 5629 5629 5629 5629 5629 5628 5628 5628 5628 5628 5629 5629 5630 5630 5630 5629 5629 5630 5631 5632 5632 5632 5633 5634 5634
5614 5616 5617 5619 5620 5621 5622 5623 5623 5624 5624 5624 5624 5624 5623 5623 5622 5622 5621 5621 5622 5622 5621 5621 5621 5620 5621 5621 5621 5621 5621 5621 5621 5620 5620 5622 5623 5624 5624 5624 5625 5626 5627
5607 5608 5610 5612 5613 5614 5615 5616 5617 5618 5618 5617 5617 5617 5617 5616 5616 5615 5615 5614 5614 5614 5614 5614 5614 5613 5613 5613 5613 5613 5612 5612 5611 5611 5612 5613 5614 5615 5616 5616 5617 5618 5618
5600 5601 5603 5605 5606 5607 5608 5609 5611 5611 5611 5611 5611 5610 5610 5610 5609 5608 5608 5607 5607 5607 5607 5606 5606 5605 5605 5604 5604 5603 5603 5603 5602 5602 5603 5604 5605 5606 5607 5608 5608 5609 5610
5593 5594 5595 5597 5598 5600 5601 5602 5604 5604 5604 5604 5604 5603 5603 5603 5603 5602 5601 5600 5599 5599 5599 5598 5598 5597 5596 5595 5594 5594 5594 5594 5593 5594 5594 5594 5595 5596 5597 5599 5600 5600 5601
5586 5587 5588 5589 5591 5593 5594 5595 5596 5597 5597 5597 5597 5596 5596 5596 5596 5595 5593 5592 5592 5591 5591 5590 5589 5588 5587 5586 5585 5585 5585 5585 5584 5585 5585 5585 5585 5586 5587 5589 5590 5591 5591
5579 5579 5581 5582 5583 5585 5586 5587 5588 5589 5590 5589 5589 5589 5589 5589 5588 5587 5586 5585 5584 5583 5583 5582 5581 5579 5578 5576 5575 5575 5575 5575 5575 5575 5576 5576 5576 5576 5577 5578 5579 5580 5581
5571 5572 5572 5574 5575 5577 5578 5580 5581 5581 5582 5582 5581 5582 5581 5581 5581 5581 5579 5578 5577 5576 5575 5574 5573 5571 5569 5567 5566 5566 5566 5566 5566 5566 5566 5566 5567 5567 5567 5568 5569 5569 5571
5562 5563 5564 5566 5566 5568 5570 5571 5572 5572 5573 5573 5573 5574 5574 5574 5574 5573 5572 5571 5569 5568 5567 5566 5564 5563 5561 5559 5558 5557 5556 5556 5556 5556 5557 5557 5557 5558 5558 5558 5559 5559 5560
5552 5554 5556 5557 5558 5559 5561 5562 5562 5562 5563 5564 5564 5565 5566 5566 5566 5565 5564 5563 5562 5560 5559 5558 5556 5554 5552 5552 5549 5546 5545 5546 5546 5547 5547 5548 5548 5548 5548 5549 5549 5549 5549
5542 5544 5546 5548 5549 5551 5552 5553 5554 5554 5554 5556 5556 5556 5557 5557 5557 5557 5556 5555 5554 5552 5551 5550 5549 5546 5544 5545 5543 5540 5535 5534 5535 5537 5538 5539 5539 5539 5539 5539 5539 5539 5540
5532 5534 5537 5538 5539 5541 5542 5543 5544 5544 5544 5545 5546 5547 5548 5548 5549 5549 5548 5547 5546 5545 5544 5543 5542 5541 5539 5537 5538 5536 5532 5528 5524 5525 5527 5529 5529 5529 5529 5529 5529 5529 5529
5522 5524 5526 5527 5529 5530 5531 5532 5534 5534 5534 5536 5538 5538 5538 5539 5539 5539 5539 5538 5537 5537 5536 5535 5535 5535 5533 5530 5529 5529 5529 5526 5519 5514 5515 5517 5518 5519 5519 5519 5519 5519 5519
5512 5513 5514 5516 5518 5519 5520 5522 5523 5524 5525 5526 5528 5528 5528 5529 5529 5530 5529 5529 5529 5528 5528 5527 5526 5526 5526 5524 5522 5520 5520 5518 5516 5510 5506 5505 5506 5507 5509 5509 5509 5509 5508
5501 5502 5504 5506 5507 5509 5510 5511 5513 5514 5514 5515 5517 5517 5518 5519 5520 5520 5520 5520 5520 5520 5519 5519 5518 5518 5517 5517 5515 5514 5512 5511 5509 5506 5501 5497 5495 5495 5497 5499 5499 5499 5498